Location: Little Italy
(37.8008°N, 122.4108°W)
Time: 21:37:17
(UTC+00:00)

CZ-4B DEB - Pass Details

Date: 29 October 2020
Orbit: 840 x 862 km, 99.1° (Epoch: 24 November)

Event Time Altitude Azimuth Distance (km) Brightness Sun altitude
Rises 14:02:39 0° 13° (NNE) 3,417 7.4 -6.6°
Reaches altitude 10° 14:05:01 10° 13° (NNE) 2,474 6.7 -6.1°
Maximum altitude 14:10:31 89° 287° (WNW) 848 4.3 -5.0°
Drops below altitude 10° 14:15:58 10° 196° (SSW) 2,449 6.6 -4.0°
Sets 14:18:18 0° 196° (SSW) 3,378 7.3 -3.6°
